Overview Statistics Trail Chart Weather Telemetry Raw packets
 

This is the latest recevied weather packets stored in our database for station/object N9BID. If no packets are shown the sender has not sent any weather packets the latest 10 day(s).

<< 5 6 7 8 9 10 11 >>
Time Temp. Humidity Pressure Rain* Wind** Luminosity Snow
1788529631 21.11° C 99% 1012.9 hPa 0 mm - 44 W/m² -
1788529330 21.11° C 99% 1012.8 hPa 0 mm - 36 W/m² -
1788529025 21.11° C 99% 1012.8 hPa 0 mm - 45 W/m² -
1788528721 20.56° C 99% 1012.8 hPa 0 mm - 82 W/m² -
1788528421 20.56° C 99% 1012.8 hPa 0 mm - 89 W/m² -
1788528116 20.56° C 99% 1012.8 hPa 0 mm - 93 W/m² -
1788527815 20.56° C 99% 1012.8 hPa 0 mm - 49 W/m² -
1788527511 20.56° C 99% 1012.9 hPa 0 mm - 42 W/m² -
1788527211 20.56° C 99% 1012.9 hPa 0 mm - 30 W/m² -
1788526905 20.56° C 99% 1012.6 hPa 0 mm - 21 W/m² -
1788526601 20.56° C 99% 1012.8 hPa 0 mm - 18 W/m² -
1788526296 20.56° C 99% 1013 hPa 0 mm - 16 W/m² -
1788525991 20.56° C 99% 1012.7 hPa 0 mm - 10 W/m² -
1788525687 20.56° C 99% 1012.7 hPa 0 mm - 4 W/m² -
1788525386 20.56° C 99% 1012.5 hPa 0 mm - 3 W/m² -
1788525082 20.56° C 99% 1012.5 hPa 0 mm - 3 W/m² -
1788524778 20.56° C 99% 1012.3 hPa 0 mm - 3 W/m² -
1788524478 20.56° C 99% 1012.4 hPa 0 mm - 3 W/m² -
1788524173 20.56° C 99% 1012.2 hPa 0 mm - 2 W/m² -
1788523869 20.56° C 99% 1012.2 hPa 0 mm - 3 W/m² -
1788523565 20.56° C 99% 1012.1 hPa 0 mm - 1 W/m² -
1788523260 20.56° C 99% 1012.4 hPa 0 mm - 1 W/m² -
1788522955 20.56° C 99% 1012.2 hPa 0 mm - 1 W/m² -
1788522650 20.56° C 99% 1012.1 hPa 0 mm - 1 W/m² -
1788522345 20.56° C 99% 1012.1 hPa 0 mm - 1 W/m² -

* Rain latest hour (hover to see other rain measurements)
** Current wind speed in m/s (hover to see current wind gust speed)